1503018000.31,14147,19.94,74638.8,4.69,3.45,3.41,0,*75
1503018001.56,14148,19.88,74636.0,4.67,3.41,3.37,0,*71
1503018002.8,14149,19.94,74636.5,4.69,3.45,3.41,0,*7B
1503018004.02,14150,19.88,74634.0,4.69,3.53,3.45,0,*70
1503018005.25,14151,19.88,74636.3,4.69,3.53,3.45,0,*71
1503018006.48,14152,19.94,74638.3,4.69,3.45,3.33,0,*74
1503018007.71,14153,19.94,74638.5,4.69,3.45,3.41,0,*70
1503018008.94,14154,19.88,74636.5,4.69,3.45,3.41,0,*77
1503018010.17,14155,19.88,74634.3,4.69,3.53,3.41,0,*71
1503018011.39,14156,19.88,74638.0,4.69,3.45,3.53,0,*76
1503018012.62,14157,19.94,74636.8,4.69,3.45,3.45,0,*70
1503018013.85,14158,19.88,74634.0,4.69,3.45,3.33,0,*7E
1503018015.08,14159,19.88,74634.5,4.73,3.49,3.45,0,*79
1503018016.3,14160,19.94,74636.0,4.73,3.49,3.45,0,*73
1503018017.53,14161,19.88,74634.5,4.69,3.53,3.41,0,*76
1503018018.73,14162,19.88,74634.0,4.69,3.55,3.45,0,*77
1503018019.9,14163,19.88,74638.0,4.69,3.63,3.55,0,*72
1503018021.07,14164,19.88,74636.3,4.69,3.55,3.55,0,*70
1503018022.24,14165,19.88,74634.3,4.69,3.55,3.55,0,*71
1503018023.41,14166,19.94,74636.5,4.73,3.59,3.55,0,*75
1503018024.58,14167,19.88,74632.8,4.73,3.55,3.55,0,*78
1503018025.75,14168,19.88,74634.8,4.73,3.59,3.59,0,*77
1503018026.96,14169,19.94,74638.3,4.73,3.67,3.59,0,*7B
1503018028.16,14170,19.88,74634.8,4.73,3.67,3.59,0,*73
1503018029.34,14171,19.88,74634.0,4.73,3.59,3.59,0,*7F
1503018030.54,14172,19.88,74632.0,4.73,3.79,3.59,0,*7E
1503018031.77,14173,19.88,74628.3,4.73,3.79,3.71,0,*75
1503018033.0,14174,19.88,74634.5,4.73,3.79,3.71,0,*72
1503018034.2,14175,19.94,74634.3,4.73,3.71,3.59,0,*71
1503018035.37,14176,19.88,74634.5,4.73,3.59,3.59,0,*78
1503018036.57,14177,19.88,74632.8,4.73,3.49,3.55,0,*74
1503018037.79,14178,19.88,74634.3,4.73,3.49,3.49,0,*76
1503018038.99,14179,19.94,74634.0,4.73,3.59,3.49,0,*76
1503018040.22,14180,19.88,74630.5,4.73,3.67,3.67,0,*71
1503018041.43,14181,19.94,74634.8,4.73,3.67,3.59,0,*7D
1503018042.6,14182,19.88,74632.0,4.73,3.59,3.55,0,*7F
1503018043.8,14183,19.94,74638.3,4.73,3.55,3.49,0,*7F
1503018044.99,14184,19.94,74634.8,4.73,3.55,3.37,0,*71
1503018046.22,14185,19.94,74636.8,4.73,3.49,3.45,0,*78
1503018047.44,14186,19.94,74634.0,4.73,3.37,3.37,0,*77
1503018048.67,14187,19.94,74634.8,4.73,3.49,3.45,0,*7A
1503018049.87,14188,19.88,74632.3,4.73,3.55,3.45,0,*78
1503018051.07,14189,19.94,74636.0,4.73,3.55,3.49,0,*75
1503018052.24,14190,19.94,74636.8,4.73,3.55,3.55,0,*70
1503018053.43,14191,19.88,74632.3,4.73,3.55,3.49,0,*7C
1503018054.66,14192,19.88,74632.8,4.73,3.49,3.45,0,*7E
1503018055.89,14193,19.88,74634.5,4.73,3.49,3.45,0,*7F
1503018057.11,14194,19.94,74636.8,4.73,3.49,3.49,0,*74
1503018058.34,14195,19.94,74636.3,4.73,3.49,3.45,0,*79
1503018059.56,14196,19.88,74632.8,4.73,3.45,3.37,0,*73
1503018060.79,14197,19.94,74634.8,4.73,3.37,3.37,0,*77
1503018062.01,14198,19.88,74634.3,4.73,3.37,3.37,0,*78
1503018063.24,14199,19.88,74630.5,4.73,3.45,3.37,0,*7C
1503018064.46,14200,19.94,74634.8,4.73,3.37,3.37,0,*7A
1503018065.69,14201,19.88,74632.8,4.73,3.45,3.37,0,*7E
1503018066.91,14202,19.88,74634.0,4.73,3.37,3.37,0,*78
1503018068.14,14203,19.88,74634.0,4.73,3.37,3.33,0,*7D
1503018069.37,14204,19.88,74632.0,4.73,3.45,3.33,0,*7F
1503018070.6,14205,19.88,74632.5,4.73,3.37,3.33,0,*7B
1503018071.83,14206,19.94,74640.0,4.73,3.37,3.33,0,*78
1503018073.06,14207,19.88,74632.5,4.73,3.45,3.33,0,*7C
1503018074.29,14208,19.88,74632.3,4.73,3.37,3.33,0,*76
1503018075.51,14209,19.88,74630.8,4.73,3.37,3.33,0,*77
1503018076.74,14210,19.88,74632.3,4.73,3.37,3.33,0,*7F
1503018077.97,14211,19.88,74634.5,4.73,3.37,3.33,0,*7E
1503018079.2,14212,19.88,74632.5,4.73,3.37,3.33,0,*7D
1503018080.43,14213,19.88,74632.5,4.73,3.37,3.33,0,*7C
1503018081.65,14214,19.94,74636.5,4.73,3.37,3.37,0,*7F
1503018082.88,14215,19.88,74634.5,4.73,3.37,3.33,0,*7A
1503018084.08,14216,19.94,74636.3,4.73,3.33,3.25,0,*7A
1503018085.28,14217,19.88,74634.3,4.73,3.33,3.25,0,*7B
1503018086.51,14218,19.88,74634.3,4.73,3.33,3.33,0,*73
1503018087.73,14219,19.88,74632.0,4.73,3.33,3.33,0,*72
1503018088.93,14220,19.88,74632.3,4.73,3.33,3.25,0,*7F
1503018090.16,14221,19.88,74632.0,4.73,3.33,3.33,0,*79
1503018091.38,14222,19.88,74634.5,4.73,3.33,3.33,0,*7A
1503018092.61,14223,19.88,74636.0,4.73,3.33,3.33,0,*7B
1503018093.84,14224,19.94,74634.5,4.73,3.37,3.33,0,*78
1503018095.07,14225,19.88,74632.3,4.73,3.45,3.45,0,*7D
1503018096.29,14226,19.88,74632.3,4.73,3.49,3.45,0,*72
1503018097.49,14227,19.88,74632.0,4.73,3.55,3.45,0,*7E
1503018098.66,14228,19.88,74632.8,4.73,3.59,3.55,0,*7C
1503018099.86,14229,19.88,74634.3,4.73,3.55,3.49,0,*7C
1503018101.03,14230,19.88,74626.8,4.73,3.55,3.55,0,*79
1503018102.2,14231,19.88,74634.3,4.73,3.55,3.55,0,*78
1503018103.42,14232,19.88,74636.5,4.73,3.49,3.45,0,*77
1503018104.65,14233,19.88,74634.0,4.73,3.45,3.45,0,*7A
1503018105.88,14234,19.88,74634.3,4.73,3.45,3.37,0,*78
1503018107.1,14235,19.88,74636.0,4.73,3.45,3.37,0,*79
1503018108.3,14236,19.88,74632.3,4.73,3.55,3.49,0,*72
1503018109.5,14237,19.88,74634.3,4.73,3.55,3.49,0,*73
1503018110.73,14238,19.88,74634.5,4.73,3.49,3.45,0,*7D
1503018111.93,14239,19.88,74634.0,4.73,3.55,3.45,0,*71
1503018113.15,14240,19.88,74632.8,4.73,3.49,3.49,0,*7E
1503018114.38,14241,19.88,74634.8,4.73,3.49,3.49,0,*7F
1503018115.6,14242,19.88,74636.0,4.73,3.45,3.37,0,*79
1503018116.83,14243,19.88,74634.3,4.73,3.45,3.37,0,*78
1503018118.05,14244,19.88,74634.3,4.73,3.37,3.37,0,*7A
1503018119.28,14245,19.88,74632.8,4.73,3.37,3.37,0,*7B
1503018120.5,14246,19.88,74634.0,4.73,3.49,3.45,0,*74
1503018121.7,14247,19.88,74628.8,4.73,3.55,3.49,0,*74
1503018122.87,14248,19.88,74634.5,4.73,3.55,3.55,0,*76
1503018124.07,14249,19.88,74632.0,4.73,3.55,3.49,0,*7A
1503018125.29,14250,19.88,74634.0,4.73,3.49,3.49,0,*7F
1503018126.52,14251,19.88,74634.0,4.73,3.49,3.37,0,*77
1503018127.74,14252,19.88,74632.0,4.73,3.37,3.37,0,*7D
1503018128.97,14253,19.88,74632.8,4.73,3.37,3.37,0,*7C
1503018130.19,14254,19.88,74634.3,4.73,3.37,3.37,0,*7B
1503018131.42,14255,19.88,74632.5,4.73,3.45,3.37,0,*7F
1503018132.64,14256,19.88,74636.3,4.73,3.37,3.37,0,*79
1503018133.87,14257,19.88,74632.5,4.73,3.45,3.45,0,*78
1503018135.07,14258,19.88,74636.5,4.73,3.55,3.49,0,*7A
1503018136.3,14259,19.88,74634.5,4.73,3.49,3.45,0,*7A
1503018137.52,14260,19.88,74634.8,4.73,3.45,3.37,0,*79
1503018138.75,14261,19.88,74632.8,4.73,3.45,3.37,0,*78
1503018140.0,14262,19.88,74638.0,4.75,3.49,3.37,0,*71
1503018141.22,14263,19.88,74634.3,4.73,3.49,3.45,0,*73
1503018142.42,14264,19.88,74632.0,4.73,3.55,3.49,0,*75
1503018143.62,14265,19.88,74636.5,4.73,3.55,3.49,0,*74
1503018144.79,14266,19.88,74634.5,4.73,3.59,3.55,0,*76
1503018145.96,14267,19.88,74632.8,4.73,3.59,3.59,0,*7B
1503018147.14,14268,19.94,74636.0,4.73,3.59,3.59,0,*74
1503018148.3,14269,19.88,74632.5,4.73,3.55,3.55,0,*75
1503018149.51,14270,19.88,74634.5,4.73,3.67,3.59,0,*70
1503018150.71,14271,19.88,74634.5,4.73,3.59,3.49,0,*7D
1503018151.91,14272,19.88,74636.0,4.73,3.59,3.49,0,*7E
1503018153.09,14273,19.88,74632.0,4.73,3.59,3.59,0,*7E
1503018154.29,14274,19.88,74636.0,4.75,3.59,3.59,0,*7F
1503018155.48,14275,19.94,74636.3,4.75,3.55,3.55,0,*7E
1503018156.68,14276,19.94,74638.8,4.75,3.55,3.55,0,*7D
1503018157.93,14277,19.88,74638.0,4.75,3.67,3.67,0,*7C
1503018159.19,14278,19.88,74632.8,4.75,3.79,3.67,0,*7C
1503018160.42,14279,19.88,74636.3,4.75,3.79,3.59,0,*70
1503018161.67,14280,19.88,74634.3,4.75,3.67,3.67,0,*74
1503018162.9,14281,19.88,74632.3,4.75,3.67,3.59,0,*78
1503018164.11,14282,19.88,74632.3,4.77,3.71,3.63,0,*77
1503018165.34,14283,19.88,74636.3,4.77,3.75,3.71,0,*71
1503018166.58,14284,19.88,74634.0,4.77,3.75,3.71,0,*76
1503018167.78,14285,19.88,74634.0,4.77,3.63,3.71,0,*70
1503018168.99,14286,19.88,74634.3,4.77,3.75,3.63,0,*77
1503018170.2,14287,19.88,74632.5,4.77,3.81,3.71,0,*7E
1503018171.45,14288,19.88,74634.3,4.75,3.71,3.67,0,*7B
1503018172.69,14289,19.88,74630.5,4.77,3.75,3.71,0,*7B
1503018173.89,14290,19.88,74634.3,4.77,3.81,3.75,0,*7C
1503018175.15,14291,19.88,74632.3,4.75,3.71,3.67,0,*73
1503018176.38,14292,19.88,74632.3,4.77,3.75,3.71,0,*71
1503018177.62,14293,19.88,74634.0,4.77,3.75,3.71,0,*70
1503018178.88,14294,19.88,74632.8,4.79,3.79,3.75,0,*71
1503018180.13,14295,19.88,74632.3,4.79,3.79,3.75,0,*70
1503018181.39,14296,19.88,74632.8,4.79,3.67,3.67,0,*7F
1503018182.62,14297,19.88,74632.5,4.79,3.67,3.63,0,*7A
1503018183.86,14298,19.88,74634.0,4.79,3.75,3.63,0,*76
1503018185.11,14299,19.88,74630.5,4.79,3.75,3.67,0,*73
1503018186.37,14300,19.88,74632.5,4.79,3.75,3.67,0,*72
1503018187.6,14301,19.88,74630.5,4.79,3.67,3.55,0,*71
1503018188.8,14302,19.88,74634.5,4.79,3.63,3.55,0,*76
1503018190.0,14303,19.88,74636.5,4.79,3.63,3.55,0,*77
1503018191.2,14304,19.88,74634.0,4.79,3.63,3.55,0,*70
1503018192.4,14305,19.88,74632.5,4.79,3.63,3.55,0,*71
1503018193.6,14306,19.88,74634.5,4.79,3.63,3.55,0,*72
1503018194.79,14307,19.88,74634.0,4.79,3.55,3.55,0,*76
1503018195.99,14308,19.88,74634.0,4.79,3.63,3.55,0,*7C
1503018197.19,14309,19.88,74634.0,4.79,3.63,3.55,0,*7D
1503018198.39,14310,19.88,74634.8,4.79,3.63,3.55,0,*75
1503018199.59,14311,19.88,74632.3,4.79,3.63,3.63,0,*71
1503018200.78,14312,19.88,74632.5,4.79,3.55,3.55,0,*72
1503018201.98,14313,19.88,74632.0,4.79,3.63,3.55,0,*76
1503018203.18,14314,19.88,74632.8,4.79,3.63,3.63,0,*74
1503018204.36,14315,19.88,74632.5,4.81,3.63,3.63,0,*72
1503018205.55,14316,19.88,74634.8,4.79,3.63,3.63,0,*76
1503018206.78,14317,19.88,74630.8,4.81,3.75,3.67,0,*73
1503018208.02,14318,19.88,74634.0,4.81,3.75,3.67,0,*7C
1503018209.25,14319,19.88,74634.8,4.81,3.75,3.75,0,*7E
1503018210.48,14320,19.94,74634.0,4.79,3.85,3.75,0,*7C
1503018211.74,14321,19.88,74634.5,4.79,3.79,3.75,0,*7E
1503018212.97,14322,19.88,74634.5,4.81,3.75,3.67,0,*75
1503018214.17,14323,19.88,74632.5,4.81,3.67,3.63,0,*73
1503018215.38,14324,19.88,74632.3,4.81,3.67,3.55,0,*71
1503018216.61,14325,19.88,74630.8,4.81,3.75,3.75,0,*71
1503018217.87,14326,19.88,74634.8,4.79,3.79,3.67,0,*7A
1503018219.09,14327,19.88,74632.8,4.81,3.79,3.67,0,*7C
1503018220.35,14328,19.88,74634.0,4.79,3.79,3.75,0,*77
1503018221.58,14329,19.88,74634.0,4.81,3.75,3.75,0,*7D
1503018222.82,14330,19.88,74630.8,4.81,3.79,3.75,0,*79
1503018224.05,14331,19.88,74628.5,4.81,3.75,3.75,0,*74
1503018225.28,14332,19.88,74632.5,4.81,3.67,3.67,0,*77
1503018226.51,14333,19.88,74632.3,4.81,3.75,3.67,0,*75
1503018227.74,14334,19.88,74632.5,4.85,3.79,3.79,0,*75
1503018228.97,14335,19.88,74632.5,4.85,3.71,3.71,0,*74
1503018230.2,14336,19.88,74630.8,4.85,3.71,3.71,0,*77
1503018231.42,14337,19.88,74630.8,4.85,3.71,3.67,0,*71
1503018232.65,14338,19.88,74628.3,4.81,3.79,3.71,0,*75
1503018233.88,14339,19.88,74630.8,4.85,3.71,3.67,0,*7F
1503018235.11,14340,19.88,74630.5,4.85,3.71,3.67,0,*71
1503018236.33,14341,19.88,74628.5,4.85,3.79,3.67,0,*78
1503018237.56,14342,19.88,74628.5,4.85,3.71,3.71,0,*74
1503018238.77,14343,19.88,74634.5,4.85,3.67,3.59,0,*78
1503018239.97,14344,19.88,74628.3,4.85,3.59,3.67,0,*7F
1503018241.17,14345,19.88,74634.0,4.81,3.67,3.63,0,*73
1503018242.4,14346,19.88,74634.3,4.81,3.75,3.75,0,*74
1503018243.63,14347,19.88,74632.0,4.81,3.75,3.67,0,*76
1503018244.86,14348,19.88,74630.3,4.85,3.79,3.79,0,*7E
1503018246.09,14349,19.88,74632.3,4.85,3.79,3.71,0,*77
1503018247.32,14350,19.88,74630.5,4.87,3.81,3.71,0,*7A
1503018248.55,14351,19.88,74634.0,4.85,3.79,3.79,0,*76
1503018249.78,14352,19.88,74632.5,4.85,3.79,3.71,0,*7D
1503018251.03,14353,19.88,74628.5,4.87,3.79,3.79,0,*76
1503018252.29,14354,19.88,74628.3,4.87,3.79,3.71,0,*79
1503018253.47,14355,19.88,74632.3,4.85,3.89,3.81,0,*7A
1503018254.67,14356,19.88,74628.5,4.85,3.81,3.79,0,*76
1503018255.88,14357,19.88,74632.3,4.87,3.89,3.81,0,*7A
1503018257.06,14358,19.88,74630.5,4.85,3.81,3.81,0,*7F
1503018258.26,14359,19.88,74630.5,4.87,3.81,3.81,0,*7C
1503018259.47,14360,19.88,74632.3,4.87,3.89,3.89,0,*76
1503018260.68,14361,19.88,74630.3,4.87,3.81,3.81,0,*77
1503018261.86,14362,19.88,74630.8,4.85,3.81,3.89,0,*7E
1503018263.07,14363,19.88,74634.5,4.87,3.89,3.81,0,*7D
1503018264.28,14364,19.88,74630.8,4.87,3.89,3.81,0,*7A
1503018265.49,14365,19.88,74632.0,4.87,3.89,3.89,0,*73
1503018266.69,14366,19.88,74632.3,4.87,3.81,3.81,0,*70
1503018267.9,14367,19.88,74628.3,4.87,3.81,3.81,0,*71
1503018269.07,14368,19.88,74632.0,4.89,3.85,3.85,0,*70
1503018270.27,14369,19.88,74632.3,4.89,3.81,3.75,0,*7A
1503018271.47,14370,19.88,74632.3,4.89,3.75,3.63,0,*7E
1503018272.67,14371,19.88,74628.5,4.87,3.59,3.59,0,*76
1503018273.92,14372,19.88,74632.0,4.87,3.23,3.19,0,*7C
1503018275.15,14373,19.88,74630.3,4.87,3.07,2.99,0,*72
1503018276.39,14374,19.88,74628.5,4.87,3.07,2.95,0,*79
1503018277.59,14375,19.88,74628.0,4.85,2.99,2.89,0,*71
1503018278.82,14376,19.88,74630.0,4.87,2.95,2.89,0,*7C
1503018280.0,14377,19.88,74628.0,4.85,2.99,2.99,0,*72
1503018281.22,14378,19.88,74630.0,4.85,2.89,2.77,0,*7C
1503018282.45,14379,19.88,74632.3,4.85,2.89,2.77,0,*7D
1503018283.65,14380,19.88,74632.5,4.81,2.91,2.85,0,*7B
1503018284.87,14381,19.88,74632.3,4.79,2.91,2.85,0,*7D
1503018286.08,14382,19.88,74628.8,4.81,2.91,2.85,0,*79
1503018287.33,14383,19.88,74630.0,4.79,2.85,2.81,0,*7E
1503018288.58,14384,19.88,74630.0,4.79,2.81,2.69,0,*7B
1503018289.81,14385,19.88,74630.3,4.75,2.73,2.65,0,*77
1503018291.04,14386,19.88,74630.8,4.77,2.89,2.77,0,*70
1503018292.27,14387,19.88,74634.0,4.77,2.77,2.77,0,*70
1503018293.5,14388,19.88,74632.0,4.75,2.77,2.65,0,*7E
1503018294.71,14389,19.88,74630.5,4.75,2.61,2.61,0,*7C
1503018295.93,14390,19.88,74628.8,4.75,2.61,2.55,0,*73
1503018297.18,14391,19.88,74628.5,4.75,2.73,2.55,0,*71
1503018298.38,14392,19.88,74630.8,4.73,2.77,2.65,0,*73
1503018299.6,14393,19.88,74634.5,4.73,2.73,2.73,0,*71
1503018300.8,14394,19.88,74628.8,4.73,2.73,2.61,0,*75
1503018302.0,14395,19.88,74628.3,4.73,2.73,2.65,0,*70
1503018303.23,14396,19.88,74628.8,4.69,2.69,2.69,0,*7F
1503018304.45,14397,19.88,74630.3,4.69,2.69,2.69,0,*7E
1503018305.67,14398,19.88,74628.3,4.73,2.77,2.73,0,*7E
1503018306.89,14399,19.88,74624.8,4.69,2.73,2.69,0,*7B
1503018308.12,14400,19.88,74630.0,4.69,2.69,2.59,0,*74
1503018309.35,14401,19.88,74630.8,4.69,2.59,2.59,0,*76
1503018310.6,14402,19.88,74628.3,4.67,2.59,2.55,0,*77
1503018311.83,14403,19.88,74630.0,4.69,2.59,2.59,0,*74
1503018313.08,14404,19.88,74628.5,4.67,2.55,2.55,0,*7D
1503018314.33,14405,19.94,74634.5,4.67,2.59,2.55,0,*70
1503018315.56,14406,19.88,74628.8,4.67,2.65,2.59,0,*70
1503018316.79,14407,19.88,74628.3,4.69,2.81,2.73,0,*7D
1503018318.05,14408,19.88,74630.0,4.67,2.81,2.69,0,*77
1503018319.3,14409,19.88,74628.5,4.67,2.81,2.69,0,*76
1503018320.52,14410,19.88,74628.3,4.65,2.77,2.73,0,*7E
1503018321.72,14411,19.88,74630.8,4.65,2.77,2.61,0,*7C
1503018322.95,14412,19.88,74630.8,4.67,2.69,2.65,0,*76
1503018324.15,14413,19.88,74628.8,4.65,2.77,2.65,0,*7A
1503018325.35,14414,19.88,74628.8,4.65,2.77,2.65,0,*7D
1503018326.6,14415,19.88,74628.8,4.63,2.73,2.73,0,*79
1503018327.8,14416,19.88,74630.5,4.65,2.73,2.65,0,*7B
1503018329.03,14417,19.88,74630.0,4.63,2.77,2.61,0,*7C
1503018330.26,14418,19.88,74630.5,4.63,2.77,2.65,0,*77
1503018331.52,14419,19.88,74630.3,4.63,2.77,2.77,0,*75
1503018332.69,14420,19.88,74630.0,4.65,2.95,2.95,0,*79
1503018333.88,14421,19.88,74630.8,4.65,2.95,2.85,0,*79
1503018335.12,14422,19.88,74630.8,4.63,2.99,2.89,0,*7C
1503018336.37,14423,19.88,74630.8,4.63,2.89,2.89,0,*7C
1503018337.62,14424,19.88,74628.3,4.63,2.89,2.85,0,*77
1503018338.82,14425,19.88,74632.0,4.65,2.99,2.89,0,*7D
1503018340.05,14426,19.88,74628.5,4.63,2.95,2.85,0,*78
1503018341.28,14427,19.88,74630.5,4.63,2.95,2.89,0,*75
1503018342.48,14428,19.88,74628.8,4.65,2.95,2.85,0,*70
1503018343.71,14429,19.88,74628.3,4.63,2.95,2.89,0,*7B
1503018344.88,14430,19.88,74630.8,4.65,2.99,2.99,0,*78
1503018346.05,14431,19.88,74634.8,4.65,2.99,2.99,0,*79
1503018347.26,14432,19.88,74632.3,4.65,3.07,2.99,0,*7C
1503018348.49,14433,19.88,74630.0,4.65,3.11,3.11,0,*7B
1503018349.71,14434,19.88,74630.8,4.65,3.11,3.07,0,*7B
1503018350.94,14435,19.88,74630.0,4.65,3.15,3.07,0,*7E
1503018352.17,14436,19.88,74632.3,4.65,3.15,3.07,0,*7D
1503018353.4,14437,19.88,74628.8,4.65,3.11,3.07,0,*78
1503018354.63,14438,19.88,74634.0,4.65,3.11,3.07,0,*77
1503018355.85,14439,19.88,74628.5,4.65,3.23,3.11,0,*70
1503018357.08,14440,19.88,74634.0,4.65,3.23,3.11,0,*7E
1503018358.33,14441,19.88,74628.3,4.67,3.19,3.15,0,*70
1503018359.57,14442,19.88,74628.0,4.67,3.25,3.15,0,*7C
1503018360.8,14443,19.88,74628.5,4.67,3.25,3.15,0,*7D
1503018361.98,14444,19.88,74628.8,4.69,3.29,3.29,0,*77
1503018363.16,14445,19.88,74628.5,4.69,3.29,3.29,0,*76
1503018364.38,14446,19.88,74628.0,4.69,3.23,3.23,0,*75
1503018365.62,14447,19.88,74630.5,4.69,3.23,3.15,0,*71
1503018366.85,14448,19.88,74630.8,4.67,3.25,3.15,0,*76
1503018368.08,14449,19.88,74626.0,4.69,3.15,3.15,0,*7A
1503018369.31,14450,19.88,74630.3,4.69,3.19,3.15,0,*7E
1503018370.57,14451,19.88,74630.5,4.67,3.15,3.11,0,*79
1503018371.83,14452,19.88,74628.0,4.67,3.15,3.11,0,*7A
1503018373.09,14453,19.88,74628.5,4.67,3.15,3.11,0,*7B
1503018374.31,14454,19.88,74630.5,4.69,3.19,3.19,0,*76
1503018375.55,14455,19.88,74632.3,4.69,3.15,3.15,0,*77
1503018376.77,14456,19.88,74628.3,4.69,3.19,3.15,0,*78
1503018378.0,14457,19.88,74630.8,4.69,3.19,3.15,0,*79
1503018379.22,14458,19.88,74630.0,4.69,3.19,3.15,0,*76
1503018380.45,14459,19.88,74630.3,4.69,3.23,3.19,0,*72
1503018381.67,14460,19.88,74630.5,4.73,3.19,3.19,0,*7A
1503018382.89,14461,19.88,74630.8,4.73,3.19,3.11,0,*73
1503018384.12,14462,19.88,74628.8,4.69,3.15,3.07,0,*70
1503018385.36,14463,19.88,74630.5,4.69,3.15,3.07,0,*71
1503018386.58,14464,19.88,74628.5,4.69,3.19,3.15,0,*79
1503018387.81,14465,19.88,74632.8,4.69,3.19,3.15,0,*78
1503018389.04,14466,19.88,74628.5,4.69,3.23,3.15,0,*72
1503018390.27,14467,19.88,74630.0,4.73,3.23,3.23,0,*7D
1503018391.49,14468,19.88,74628.8,4.73,3.23,3.19,0,*7B
1503018392.69,14469,19.88,74630.5,4.73,3.25,3.19,0,*7C
1503018393.89,14470,19.88,74632.8,4.73,3.33,3.25,0,*7C
1503018395.12,14471,19.88,74628.5,4.73,3.33,3.33,0,*7A
1503018396.34,14472,19.88,74628.8,4.73,3.37,3.33,0,*7D
1503018397.58,14473,19.88,74630.8,4.73,3.41,3.41,0,*78
1503018398.81,14474,19.88,74630.0,4.73,3.37,3.37,0,*7F
1503018400.03,14475,19.88,74630.8,4.73,3.45,3.33,0,*7F
1503018401.26,14476,19.88,74630.5,4.73,3.45,3.33,0,*7C
1503018402.49,14477,19.88,74628.8,4.73,3.37,3.33,0,*78
1503018403.72,14478,19.88,74630.5,4.73,3.37,3.33,0,*77
1503018404.95,14479,19.88,74630.3,4.73,3.37,3.33,0,*76
1503018406.17,14480,19.88,74630.8,4.73,3.45,3.37,0,*71
1503018407.37,14481,19.88,74628.5,4.73,3.55,3.45,0,*74
1503018408.6,14482,19.88,74630.0,4.73,3.49,3.49,0,*76
1503018409.85,14483,19.88,74630.8,4.75,3.45,3.37,0,*74
1503018411.11,14484,19.88,74630.5,4.75,3.45,3.45,0,*76
1503018412.28,14485,19.88,74630.8,4.77,3.59,3.59,0,*75
1503018413.46,14486,19.88,74630.8,4.77,3.63,3.59,0,*7F
1503018414.63,14487,19.88,74630.3,4.77,3.63,3.59,0,*7E
1503018415.86,14488,19.88,74630.5,4.75,3.59,3.49,0,*7B
1503018417.08,14489,19.88,74634.0,4.77,3.53,3.53,0,*79
1503018418.31,14490,19.88,74632.3,4.77,3.53,3.49,0,*7A
1503018419.52,14491,19.88,74628.5,4.77,3.37,3.29,0,*7F
1503018420.7,14492,19.88,74632.3,4.77,3.29,3.25,0,*7F
1503018421.9,14493,19.88,74628.5,4.77,3.37,3.29,0,*7D
1503018423.13,14494,19.88,74628.8,4.77,3.37,3.37,0,*75
1503018424.36,14495,19.88,74630.0,4.77,3.37,3.37,0,*74
1503018425.57,14496,19.88,74630.8,4.77,3.37,3.29,0,*78
1503018426.75,14497,19.88,74632.8,4.77,3.29,3.29,0,*76
1503018427.95,14498,19.88,74628.3,4.79,3.29,3.25,0,*7B
1503018429.21,14499,19.88,74628.3,4.79,3.15,3.07,0,*75
1503018430.48,14500,19.88,74630.5,4.79,3.07,3.07,0,*77
1503018431.7,14501,19.88,74632.3,4.79,3.25,3.19,0,*79
1503018432.92,14502,19.88,74632.8,4.79,3.25,3.19,0,*7A
1503018434.15,14503,19.88,74630.5,4.79,3.25,3.19,0,*7B
1503018435.39,14504,19.88,74630.8,4.77,3.23,3.15,0,*78
1503018436.57,14505,19.88,74630.8,4.77,3.25,3.25,0,*7C
1503018437.77,14506,19.88,74630.5,4.77,3.25,3.11,0,*78
1503018439.01,14507,19.88,74630.8,4.77,3.23,3.15,0,*7B
1503018440.24,14508,19.88,74630.8,4.79,3.25,3.15,0,*7C
1503018441.47,14509,19.88,74628.0,4.79,3.25,3.19,0,*71
1503018442.69,14510,19.88,74628.3,4.79,3.33,3.29,0,*7D
1503018443.9,14511,19.88,74630.3,4.79,3.29,3.29,0,*77
1503018445.11,14512,19.88,74628.0,4.79,3.29,3.25,0,*78
1503018446.34,14513,19.88,74630.5,4.77,3.15,3.03,0,*7C
1503018447.58,14514,19.88,74630.8,4.77,3.15,3.11,0,*78
1503018448.82,14515,19.88,74630.5,4.77,3.15,3.15,0,*7D
1503018450.05,14516,19.88,74628.3,4.77,3.23,3.23,0,*7E
1503018451.28,14517,19.88,74624.8,4.77,3.23,3.11,0,*7E
1503018452.52,14518,19.88,74628.8,4.77,3.23,3.15,0,*75
1503018453.75,14519,19.88,74626.5,4.77,3.15,3.11,0,*75
1503018454.96,14520,19.88,74630.5,4.79,3.29,3.25,0,*79
1503018456.14,14521,19.88,74630.5,4.81,3.29,3.25,0,*7F
1503018457.34,14522,19.88,74626.5,4.81,3.33,3.29,0,*7B
1503018458.52,14523,19.88,74630.8,4.81,3.29,3.29,0,*71
1503018459.72,14524,19.88,74628.3,4.79,3.29,3.25,0,*7D
1503018460.97,14525,19.88,74630.0,4.79,3.33,3.33,0,*70
1503018462.2,14526,19.88,74628.3,4.79,3.33,3.29,0,*78
1503018463.43,14527,19.88,74628.3,4.79,3.33,3.29,0,*79
1503018464.66,14528,19.88,74626.5,4.79,3.41,3.29,0,*73
1503018465.91,14529,19.88,74628.5,4.79,3.33,3.33,0,*7C
1503018467.18,14530,19.88,74630.0,4.79,3.41,3.41,0,*74
1503018468.44,14531,19.88,74630.3,4.79,3.41,3.33,0,*70
1503018469.64,14532,19.88,74628.5,4.81,3.41,3.29,0,*7F
1503018470.9,14533,19.88,74628.5,4.79,3.33,3.33,0,*77
1503018472.16,14534,19.88,74632.3,4.79,3.41,3.41,0,*70
1503018473.42,14535,19.88,74632.3,4.79,3.41,3.33,0,*74
1503018474.65,14536,19.88,74630.3,4.79,3.33,3.29,0,*79
1503018475.87,14537,19.88,74632.8,4.79,3.33,3.25,0,*74
1503018477.1,14538,19.88,74628.0,4.79,3.33,3.29,0,*77
1503018478.33,14539,19.88,74628.8,4.79,3.33,3.29,0,*76
1503018479.53,14540,19.88,74630.5,4.81,3.33,3.29,0,*7F
1503018480.76,14541,19.88,74630.3,4.81,3.41,3.41,0,*75
1503018482.0,14542,19.88,74630.8,4.81,3.41,3.33,0,*73
1503018483.22,14543,19.88,74630.3,4.81,3.33,3.33,0,*77
1503018484.49,14544,19.88,74628.0,4.79,3.41,3.41,0,*77
1503018485.71,14545,19.88,74628.3,4.85,3.45,3.37,0,*70
1503018486.94,14546,19.88,74634.0,4.85,3.45,3.37,0,*73
1503018488.17,14547,19.88,74630.3,4.85,3.45,3.45,0,*77
1503018489.39,14548,19.88,74630.3,4.85,3.45,3.37,0,*7D
1503018490.63,14549,19.88,74628.5,4.81,3.41,3.41,0,*7D
1503018491.85,14550,19.88,74630.8,4.85,3.49,3.37,0,*78
1503018493.07,14551,19.88,74630.8,4.85,3.49,3.37,0,*79
1503018494.3,14552,19.88,74628.3,4.85,3.45,3.37,0,*76
1503018495.53,14553,19.88,74630.8,4.85,3.45,3.45,0,*72
1503018496.78,14554,19.88,74630.5,4.87,3.45,3.45,0,*77
1503018498.04,14555,19.88,74630.5,4.87,3.45,3.37,0,*73
1503018499.26,14556,19.88,74632.3,4.85,3.37,3.37,0,*77
1503018500.44,14557,19.88,74630.5,4.85,3.29,3.29,0,*76
1503018501.67,14558,19.88,74630.8,4.87,3.33,3.29,0,*70
1503018502.89,14559,19.88,74628.5,4.87,3.33,3.29,0,*71
1503018504.14,14560,19.88,74630.8,4.87,3.33,3.33,0,*70
1503018505.36,14561,19.88,74628.8,4.85,3.33,3.23,0,*72
1503018506.59,14562,19.88,74628.8,4.85,3.23,3.23,0,*70
1503018507.84,14563,19.88,74628.8,4.87,3.23,3.23,0,*73
1503018509.09,14564,19.88,74632.5,4.87,3.33,3.23,0,*75
1503018510.31,14565,19.88,74632.0,4.87,3.29,3.23,0,*7F
1503018511.54,14566,19.88,74626.8,4.85,3.23,3.19,0,*7D
1503018512.76,14567,19.88,74628.5,4.85,3.23,3.19,0,*7C
1503018514.01,14568,19.88,74628.3,4.87,3.19,3.23,0,*71
1503018515.23,14569,19.88,74630.8,4.85,3.19,3.07,0,*74
1503018516.43,14570,19.88,74628.3,4.85,3.11,2.99,0,*72
1503018517.66,14571,19.88,74624.5,4.85,3.11,3.07,0,*75
1503018518.9,14572,19.88,74626.3,4.81,3.15,3.07,0,*76
1503018520.12,14573,19.88,74630.0,4.81,3.19,3.19,0,*74
1503018521.29,14574,19.88,74628.5,4.81,3.29,3.25,0,*7F
1503018522.47,14575,19.88,74630.0,4.85,3.25,3.29,0,*7A
1503018523.67,14576,19.88,74630.8,4.85,3.29,3.19,0,*76
1503018524.87,14577,19.88,74630.5,4.81,3.25,3.19,0,*7F
1503018526.09,14578,19.88,74624.3,4.85,3.33,3.23,0,*7A
1503018527.31,14579,19.88,74630.8,4.85,3.33,3.33,0,*7A
1503018528.52,14580,19.88,74628.3,4.85,3.37,3.29,0,*73
1503018529.74,14581,19.88,74628.8,4.85,3.33,3.33,0,*7D
1503018531.0,14582,19.88,74626.0,4.87,3.37,3.33,0,*78
1503018532.22,14583,19.88,74628.8,4.85,3.45,3.37,0,*7A